Weather Service Report


605 
ASUS45 KBOU 230710
RWRCO 

WEATHER ROUNDUP FOR COLORADO
NATIONAL WEATHER SERVICE DENVER/BOULDER CO
100 AM MDT THU SEP 23 2021

NOTE: "FAIR" INDICATES FEW OR NO CLOUDS BELOW 12000 FEET WITH NO
SIGNIFICANT WEATHER AND/OR OBSTRUCTIONS TO VISIBILITY.

COZ001>005-013-030-031-230800-
...NORTHWEST COLORADO...
  
CITY           SKY/WX    TMP DP  RH WIND       PRES   REMARKS
CRAIG          FAIR      37  29  72 CALM      30.25S                  
HAYDEN         FAIR      47  23  38 E9        30.27F                  
MEEKER         FAIR      43  21  41 NE8       30.26F                  
RANGELY        FAIR      44  31  61 E6        30.18S                  
RABBIT EARS PA FAIR      45  18  33 W7        30.50S                  
STEAMBOAT SPGS FAIR      39  26  59 CALM      30.27S                  
WALDEN         FAIR      34  21  58 SE7       30.35R WCI  28          
$$

COZ006>008-011-230800-
...WEST CENTRAL VALLEYS...
  
CITY           SKY/WX    TMP DP  RH WIND       PRES   REMARKS
GRAND JUNCTION FAIR      56  24  29 SE13      30.16F                  
MONTROSE       FAIR      54  26  34 SE9       30.24S                  
EAGLE          FAIR      44  16  32 CALM      30.32R                  
RIFLE          FAIR      49  17  28 CALM      30.23S                  
DELTA          FAIR      51  31  45 NE3       30.22S                  
NUCLA          NOT AVBL                                               
$$

COZ017>023-064>068-230800-
...SOUTHWEST COLORADO...
  
CITY           SKY/WX    TMP DP  RH WIND       PRES   REMARKS
DURANGO        FAIR      46  21  37 CALM      30.29S                  
CORTEZ         FAIR      42  26  53 E6        30.25F                  
PAGOSA SPRINGS FAIR      43  17  34 CALM      30.36S                  
TELLURIDE      FAIR      45  21  39 SE7       30.45F                  
WOLF CREEK PAS FAIR      41  12  30 SW10      30.64F                  
$$

COZ009-010-012-014-032>034-037-058>063-230800-
...CENTRAL COLORADO...
  
CITY           SKY/WX    TMP DP  RH WIND       PRES   REMARKS
ASPEN          FAIR      43  20  39 S7        30.34F                  
BUENA VISTA    FAIR      37  14  39 W5        30.36S                  
COPPER MTN     FAIR      45   9  23 W14       30.59F                  
BERTHOUD PASS  FAIR      36   5  27 W20G30    30.58F                  
DAKOTA HILL    FAIR      43   9  24 NW12G24   30.48F                  
COTTONWOOD PAS FAIR      50  16  25 CALM      30.45F                  
GUNNISON       FAIR      39  20  46 CALM      30.38S                  
GRANBY         FAIR      37  22  55 CALM      30.37F                  
KREMMLING      FAIR      37  28  70 CALM      30.34S                  
LEADVILLE      FAIR      37  13  37 NE8       30.45F                  
MONARCH PASS   FAIR      43  12  28 W18       30.69S                  
SALIDA         FAIR      47  17  30 W7        30.40F                  
SUNLIGHT       FAIR      41   9  26 W5        30.54F                  
WILKERSON PASS FAIR      45  10  24 SW7       30.55F                  
$$

COZ069>075-230800-
...SAN LUIS VALLEY/SANGRE DE CRISTO MOUNTAINS...
  
CITY           SKY/WX    TMP DP  RH WIND       PRES   REMARKS
ALAMOSA        FAIR      43  22  43 NW3       30.31S                  
DEL NORTE      FAIR      52  19  26 W12       30.34F                  
LA VETA PASS   FAIR      48  18  29 W10       30.46F                  
SAGUACHE       NOT AVBL                                               
$$

COZ035-036-038>040-230800-
...NORTHERN COLORADO FRONT RANGE...
  
CITY           SKY/WX    TMP DP  RH WIND       PRES   REMARKS
DENVER INTL AP FAIR      57  27  31 SW14      30.12F                  
AURORA         CLEAR     57  26  31 SW8       30.15F                  
WATKINS        NOT AVBL                                               
ERIE           FAIR      47  29  47 CALM      30.12F                  
BOULDER        FAIR      59  28  31 W5        30.13F                  
CENTENNIAL     FAIR      53  28  38 S7        30.16F                  
BROOMFIELD     FAIR      59  23  25 NW7       30.15F                  
FORT COLLINS   FAIR      53  34  48 N6        30.12F                  
LONGMONT       FAIR      54  29  37 CALM      30.14F                  
$$

COZ041-046-047-076>085-087-088-230800-
...PIKES PEAK/PALMER DIVIDE AND SOUTHERN FOOTHILLS...
  
CITY           SKY/WX    TMP DP  RH WIND       PRES   REMARKS
COLO. SPRINGS  FAIR      53  22  29 E7        30.22F                  
A. F. ACADEMY  FAIR      44  27  51 N10       30.22F                  
SCHRIEVER AFB  NOT AVBL                                               
CHEYENNE MTN   FAIR      56  22  27 SW5         N/A                   
ELLICOTT       FAIR      43  26  49 CALM      30.23F                  
FALCON         FAIR      49  21  32 W6        30.26F                  
FORT CARSON    CLEAR     51  25  36 NW6       30.20F                  
LIMON          FAIR      38  29  70 N3        30.16F                  
MONUMENT HILL  FAIR      45  27  49 S10       30.26F                  
CANON CITY     FAIR      52  27  37 W10       30.18F                  
WALSENBURG     NOT AVBL                                               
TRINIDAD       FAIR      53  26  35 W8        30.20S                  
$$

COZ042>045-048>051-090-091-230800-
...NORTHEAST COLORADO...
  
CITY           SKY/WX    TMP DP  RH WIND       PRES   REMARKS
GREELEY        FAIR      44  30  57 CALM      30.11F                  
AKRON          FAIR      53  28  38 S9        30.10F                  
BURLINGTON     FAIR      47  31  53 SW6       30.11F                  
WRAY           FAIR      45  32  61 W10       30.08F                  
YUMA           FAIR      48  32  53 S9        30.09F                  
STERLING       FAIR      46  32  57 S6        30.07F                  
HOLYOKE        FAIR      50  36  57 SW8       30.08F                  
FORT MORGAN    FAIR      54  21  27 CALM      30.11F                  
$$

COZ086-089-092>099-230800-
...SOUTHEAST COLORADO...
  
CITY           SKY/WX    TMP DP  RH WIND       PRES   REMARKS
PUEBLO         FAIR      49  28  44 W7        30.14F                  
LA JUNTA       FAIR      51  36  56 W8        30.11S                  
LAMAR          FAIR      46  33  60 SW3       30.07F                  
SPRINGFIELD      N/A     50  35  56 SW8       30.11F                  
$$
  

Return to Home page


Western Regional Climate Center, wrcc@dri.edu